Terminal Aerodrome Forecast
Issued by NWS Raleigh/Durham, NC

Current Version | Previous Version | Text Only | Print | Product List | Glossary On
Versions: 1 2 3 4 5 6 7 8 9 10 11 12 13 14 15 16 17 18 19 20 21 22 23 24 25 26 27 28 29
000
FTUS42 KRAH 302320
TAFRDU
TAF
KRDU 302320Z 0100/0124 08008KT P6SM OVC013
     FM010500 11007KT P6SM VCSH OVC009
     FM011100 13007KT 5SM BR OVC005
     FM011500 19010G16KT P6SM BKN022 OVC040
     FM011800 21008G15KT P6SM BKN300 PROB30 0118/0124 P6SM -TSRA
      BKN050CB=

USA.gov is the U.S. government's official web portal to all federal, state and local government web resources and services.